Home > Products > State Listing > Idaho Data
Latest:
 RWRID |
  [top]

000
ASUS45 KBOI 010010
RWRID

IDAHO REGIONAL WEATHER ROUNDUP
NATIONAL WEATHER SERVICE BOISE ID
600 PM MDT SAT APR 30 2016

NOTE: "FAIR" INDICATES FEW OR NO CLOUDS BELOW 12000 FEET
WITH NO SIGNIFICANT WEATHER AND/OR OBSTRUCTIONS TO VISIBILITY

IDZ012-014-010100-
SOUTHWEST IDAHO


CITY           SKY/WX    TMP DP  RH WIND       PRES   REMARKS
BOISE          SUNNY     67  33  28 NW24G33   29.99S
CALDWELL       SUNNY     67  36  31 NW17G25   30.02S
MOUNTAIN HOME  CLOUDY    66  35  31 NW24G31   29.99S
$$

IDZ016-017-010100-
SOUTHCENTRAL IDAHO


CITY           SKY/WX    TMP DP  RH WIND       PRES   REMARKS
BURLEY         CLOUDY    57  38  48 N5        30.02S
JEROME         CLOUDY    56  39  53 N20G28    30.05R
TWIN FALLS     SUNNY     58  34  40 VRB3      30.04S
$$

IDZ019>023-010100-
SOUTHEAST IDAHO


CITY           SKY/WX    TMP DP  RH WIND       PRES   REMARKS
IDAHO FALLS    CLOUDY    55  33  43 N13       30.02R
POCATELLO      PTSUNNY   56  37  49 CALM      30.03R
REXBURG        CLOUDY    59  30  33 N14       30.01R
$$

IDZ006-010-011-018-031-032-010100-
CENTRAL IDAHO MOUNTAINS


CITY           SKY/WX    TMP DP  RH WIND       PRES   REMARKS
MCCALL         MOSUNNY   51  30  44 NW7       30.09F
HAILEY         PTSUNNY   52  39  62 SE10      30.07R
STANLEY          N/A     48  28  46 MISG      30.10R
SALMON         CLOUDY    54  36  50 N15       30.13R
CHALLIS        CLOUDY    52  30  43 N10       30.10R
$$

IDZ002-004-006-007-026-010100-
NORTHERN IDAHO


CITY           SKY/WX    TMP DP  RH WIND       PRES   REMARKS
LEWISTON       PTSUNNY   64  43  46 N3        30.21S
LOWELL           N/A     63  44  50 S8G18     30.15F
COEUR D`ALENE  PTSUNNY   55  43  62 S8        30.20R
MULLAN PASS    CLOUDY    43  31  62 CALM      30.25R
$$





000
ASUS45 KBOI 302310
RWRID

IDAHO REGIONAL WEATHER ROUNDUP
NATIONAL WEATHER SERVICE BOISE ID
500 PM MDT SAT APR 30 2016

NOTE: "FAIR" INDICATES FEW OR NO CLOUDS BELOW 12000 FEET
WITH NO SIGNIFICANT WEATHER AND/OR OBSTRUCTIONS TO VISIBILITY

IDZ012-014-010000-
SOUTHWEST IDAHO


CITY           SKY/WX    TMP DP  RH WIND       PRES   REMARKS
BOISE          SUNNY     69  35  28 NW22G35   29.99S
CALDWELL       SUNNY     68  37  32 NW22G30   30.02F
MOUNTAIN HOME  CLOUDY    67  36  31 NW16G23   29.99F
$$

IDZ016-017-010000-
SOUTHCENTRAL IDAHO


CITY           SKY/WX    TMP DP  RH WIND       PRES   REMARKS
BURLEY         PTSUNNY   57  40  52 VRB3      30.02F
JEROME         PTSUNNY   59  36  42 W7        30.03F
TWIN FALLS     PTSUNNY   56  34  43 VRB3      30.04S
$$

IDZ019>023-010000-
SOUTHEAST IDAHO


CITY           SKY/WX    TMP DP  RH WIND       PRES   REMARKS
IDAHO FALLS    LGT RAIN  57  30  35 N12G22    30.01S
POCATELLO      CLOUDY    55  39  54 E9        30.02S
REXBURG        LGT RAIN  57  30  35 NE9       30.00S
$$

IDZ006-010-011-018-031-032-010000-
CENTRAL IDAHO MOUNTAINS


CITY           SKY/WX    TMP DP  RH WIND       PRES   REMARKS
MCCALL         MOSUNNY   49  32  52 N16G25    30.10F
HAILEY         DRIZZLE   50  39  66 SE15      30.06S
STANLEY          N/A     50  25  37 NW7       30.09S
SALMON         CLOUDY    54  32  43 CALM      30.11S
CHALLIS        CLOUDY    53  30  41 NE14      30.09S
$$

IDZ002-004-006-007-026-010000-
NORTHERN IDAHO


CITY           SKY/WX    TMP DP  RH WIND       PRES   REMARKS
LEWISTON       LGT RAIN  61  44  53 VRB6      30.21S
LOWELL           N/A     62  44  51 S10G17    30.16S
COEUR D`ALENE  MOSUNNY   64  43  45 SW7       30.18S
MULLAN PASS    CLOUDY    43  31  62 CALM      30.24S
$$





000
ASUS45 KBOI 302210
RWRID

IDAHO REGIONAL WEATHER ROUNDUP
NATIONAL WEATHER SERVICE BOISE ID
400 PM MDT SAT APR 30 2016

NOTE: "FAIR" INDICATES FEW OR NO CLOUDS BELOW 12000 FEET
WITH NO SIGNIFICANT WEATHER AND/OR OBSTRUCTIONS TO VISIBILITY

IDZ012-014-302300-
SOUTHWEST IDAHO


CITY           SKY/WX    TMP DP  RH WIND       PRES   REMARKS
BOISE          PTSUNNY   69  34  27 NW22G36   29.99F
CALDWELL       SUNNY     67  39  35 NW21G29   30.03F
MOUNTAIN HOME  CLOUDY    64  36  34 W7G20     30.00F
$$

IDZ016-017-302300-
SOUTHCENTRAL IDAHO


CITY           SKY/WX    TMP DP  RH WIND       PRES   REMARKS
BURLEY         CLOUDY    54  39  57 CALM      30.03F
JEROME         MOSUNNY   59  37  44 W5        30.04F
TWIN FALLS     MOSUNNY   56  34  43 CALM      30.04F
$$

IDZ019>023-302300-
SOUTHEAST IDAHO


CITY           SKY/WX    TMP DP  RH WIND       PRES   REMARKS
IDAHO FALLS    PTSUNNY   57  30  35 N7        30.01S
POCATELLO      PTSUNNY   58  36  43 NE9       30.02F
REXBURG        PTSUNNY   58  30  34 N12G20    30.00F
$$

IDZ006-010-011-018-031-032-302300-
CENTRAL IDAHO MOUNTAINS


CITY           SKY/WX    TMP DP  RH WIND       PRES   REMARKS
MCCALL         CLOUDY    48  32  53 N14       30.11R
HAILEY         PTSUNNY   52  37  58 CALM      30.06S
STANLEY          N/A     51  26  37 VRB7G16   30.09S
SALMON         CLOUDY    54  32  43 CALM      30.11F
CHALLIS        CLOUDY    53  30  41 NE14      30.09S
$$

IDZ002-004-006-007-026-302300-
NORTHERN IDAHO


CITY           SKY/WX    TMP DP  RH WIND       PRES   REMARKS
LEWISTON       CLOUDY    61  44  53 W7        30.21F
LOWELL           N/A     62  42  47 S12G17    30.16F
COEUR D`ALENE  PTSUNNY   61  39  44 SE3       30.18S
MULLAN PASS    CLOUDY    42  31  64 CALM      30.24R
$$





000
ASUS45 KBOI 302110
RWRID

IDAHO REGIONAL WEATHER ROUNDUP
NATIONAL WEATHER SERVICE BOISE ID
300 PM MDT SAT APR 30 2016

NOTE: "FAIR" INDICATES FEW OR NO CLOUDS BELOW 12000 FEET
WITH NO SIGNIFICANT WEATHER AND/OR OBSTRUCTIONS TO VISIBILITY

IDZ012-014-302200-
SOUTHWEST IDAHO


CITY           SKY/WX    TMP DP  RH WIND       PRES   REMARKS
BOISE          SUNNY     68  36  30 NW22G30   30.01S
CALDWELL       SUNNY     67  39  35 NW18G24   30.04F
MOUNTAIN HOME  PTSUNNY   66  35  31 W9G20     30.02S
$$

IDZ016-017-302200-
SOUTHCENTRAL IDAHO


CITY           SKY/WX    TMP DP  RH WIND       PRES   REMARKS
BURLEY         CLOUDY    53  39  59 N6        30.04S
JEROME         CLOUDY    56  35  45 VRB6      30.05F
TWIN FALLS     CLOUDY    55  38  52 W7        30.05F
$$

IDZ019>023-302200-
SOUTHEAST IDAHO


CITY           SKY/WX    TMP DP  RH WIND       PRES   REMARKS
IDAHO FALLS    PTSUNNY   60  30  32 N15G24    30.01S
POCATELLO      CLOUDY    56  36  47 N12       30.03S
REXBURG        CLOUDY    58  30  34 N9        30.01S
$$

IDZ006-010-011-018-031-032-302200-
CENTRAL IDAHO MOUNTAINS


CITY           SKY/WX    TMP DP  RH WIND       PRES   REMARKS
MCCALL         PTSUNNY   52  31  44 N15G23    30.10S
HAILEY         PTSUNNY   52  37  58 SE7       30.06S
STANLEY          N/A     50  25  37 VRB6      30.09S
SALMON         CLOUDY    52  30  43 CALM      30.11F
CHALLIS        CLOUDY    52  31  44 NE15      30.09R
$$

IDZ002-004-006-007-026-302200-
NORTHERN IDAHO


CITY           SKY/WX    TMP DP  RH WIND       PRES   REMARKS
LEWISTON       MOSUNNY   60  45  57 W10       30.22S
LOWELL           N/A     61  41  47 S7        30.17S
COEUR D`ALENE  PTSUNNY   63  41  45 W3        30.18F
MULLAN PASS    CLOUDY    41  32  70 VRB3      30.23R
$$





000
ASUS45 KBOI 302010
RWRID

IDAHO REGIONAL WEATHER ROUNDUP
NATIONAL WEATHER SERVICE BOISE ID
200 PM MDT SAT APR 30 2016

NOTE: "FAIR" INDICATES FEW OR NO CLOUDS BELOW 12000 FEET
WITH NO SIGNIFICANT WEATHER AND/OR OBSTRUCTIONS TO VISIBILITY

IDZ012-014-302100-
SOUTHWEST IDAHO


CITY           SKY/WX    TMP DP  RH WIND       PRES   REMARKS
BOISE          SUNNY     67  37  33 NW21G28   30.01F
CALDWELL       SUNNY     65  40  39 NW18G24   30.05F
MOUNTAIN HOME  CLOUDY    62  35  36 NW14      30.03F
$$

IDZ016-017-302100-
SOUTHCENTRAL IDAHO


CITY           SKY/WX    TMP DP  RH WIND       PRES   REMARKS
BURLEY         CLOUDY    52  39  61 VRB6      30.04F
JEROME         CLOUDY    54  38  54 S7        30.06F
TWIN FALLS     CLOUDY    53  37  54 W7        30.06F
$$

IDZ019>023-302100-
SOUTHEAST IDAHO


CITY           SKY/WX    TMP DP  RH WIND       PRES   REMARKS
IDAHO FALLS    PTSUNNY   56  31  38 NE14      30.01F
POCATELLO      PTSUNNY   54  38  54 N7        30.03F
REXBURG        CLOUDY    56  30  37 NE10G18   30.01S
$$

IDZ006-010-011-018-031-032-302100-
CENTRAL IDAHO MOUNTAINS


CITY           SKY/WX    TMP DP  RH WIND       PRES   REMARKS
MCCALL         PTSUNNY   50  30  46 N14       30.10S
HAILEY         PTSUNNY   52  37  58 E9        30.06S
STANLEY          N/A     48  25  40 N6        30.09S
SALMON         CLOUDY    52  30  43 N3        30.12S
CHALLIS        CLOUDY    52  31  44 NE16G24   30.08S
$$

IDZ002-004-006-007-026-302100-
NORTHERN IDAHO


CITY           SKY/WX    TMP DP  RH WIND       PRES   REMARKS
LEWISTON       PTSUNNY   57  46  66 W12       30.22F
LOWELL           N/A     61  41  47 S6        30.17F
COEUR D`ALENE  PTSUNNY   59  43  55 N3        30.19F
MULLAN PASS    CLOUDY    43  32  65 VRB3      30.22R
$$





000
ASUS45 KBOI 301910
RWRID

IDAHO REGIONAL WEATHER ROUNDUP
NATIONAL WEATHER SERVICE BOISE ID
100 PM MDT SAT APR 30 2016

NOTE: "FAIR" INDICATES FEW OR NO CLOUDS BELOW 12000 FEET
WITH NO SIGNIFICANT WEATHER AND/OR OBSTRUCTIONS TO VISIBILITY

IDZ012-014-302000-
SOUTHWEST IDAHO


CITY           SKY/WX    TMP DP  RH WIND       PRES   REMARKS
BOISE          MOSUNNY   65  37  35 NW18G26   30.02F
CALDWELL       SUNNY     63  39  41 W20       30.07F
MOUNTAIN HOME  PTSUNNY   61  36  39 VRB7      30.04F
$$

IDZ016-017-302000-
SOUTHCENTRAL IDAHO


CITY           SKY/WX    TMP DP  RH WIND       PRES   REMARKS
BURLEY         CLOUDY    49  40  71 SW6       30.06S
JEROME         CLOUDY    50  39  66 SW7       30.07S
TWIN FALLS     CLOUDY    50  37  61 VRB5      30.07S
$$

IDZ019>023-302000-
SOUTHEAST IDAHO


CITY           SKY/WX    TMP DP  RH WIND       PRES   REMARKS
IDAHO FALLS    CLOUDY    57  31  37 NE9       30.02F
POCATELLO      CLOUDY    51  42  71 NW7       30.04S
REXBURG        LGT RAIN  54  30  40 NE10      30.01F
$$

IDZ006-010-011-018-031-032-302000-
CENTRAL IDAHO MOUNTAINS


CITY           SKY/WX    TMP DP  RH WIND       PRES   REMARKS
MCCALL         MOSUNNY   50  33  52 N17       30.10S
HAILEY         PTSUNNY   52  37  58 SE12      30.06S
STANLEY          N/A     47  25  42 VRB6      30.09S
SALMON         CLOUDY    50  32  50 N7        30.12S
CHALLIS        CLOUDY    52  31  44 NE14      30.08R
$$

IDZ002-004-006-007-026-302000-
NORTHERN IDAHO


CITY           SKY/WX    TMP DP  RH WIND       PRES   REMARKS
LEWISTON       CLOUDY    54  45  71 CALM      30.24R
LOWELL           N/A     56  41  57 S8        30.20S
COEUR D`ALENE  CLOUDY    55  43  62 N3        30.20S
MULLAN PASS    CLOUDY    40  31  70 CALM      30.21R
$$





000
ASUS45 KBOI 301910
RWRID

IDAHO REGIONAL WEATHER ROUNDUP
NATIONAL WEATHER SERVICE BOISE ID
100 PM MDT SAT APR 30 2016

NOTE: "FAIR" INDICATES FEW OR NO CLOUDS BELOW 12000 FEET
WITH NO SIGNIFICANT WEATHER AND/OR OBSTRUCTIONS TO VISIBILITY

IDZ012-014-302000-
SOUTHWEST IDAHO


CITY           SKY/WX    TMP DP  RH WIND       PRES   REMARKS
BOISE          MOSUNNY   65  37  35 NW18G26   30.02F
CALDWELL       SUNNY     63  39  41 W20       30.07F
MOUNTAIN HOME  PTSUNNY   61  36  39 VRB7      30.04F
$$

IDZ016-017-302000-
SOUTHCENTRAL IDAHO


CITY           SKY/WX    TMP DP  RH WIND       PRES   REMARKS
BURLEY         CLOUDY    49  40  71 SW6       30.06S
JEROME         CLOUDY    50  39  66 SW7       30.07S
TWIN FALLS     CLOUDY    50  37  61 VRB5      30.07S
$$

IDZ019>023-302000-
SOUTHEAST IDAHO


CITY           SKY/WX    TMP DP  RH WIND       PRES   REMARKS
IDAHO FALLS    CLOUDY    57  31  37 NE9       30.02F
POCATELLO      CLOUDY    51  42  71 NW7       30.04S
REXBURG        LGT RAIN  54  30  40 NE10      30.01F
$$

IDZ006-010-011-018-031-032-302000-
CENTRAL IDAHO MOUNTAINS


CITY           SKY/WX    TMP DP  RH WIND       PRES   REMARKS
MCCALL         MOSUNNY   50  33  52 N17       30.10S
HAILEY         PTSUNNY   52  37  58 SE12      30.06S
STANLEY          N/A     47  25  42 VRB6      30.09S
SALMON         CLOUDY    50  32  50 N7        30.12S
CHALLIS        CLOUDY    52  31  44 NE14      30.08R
$$

IDZ002-004-006-007-026-302000-
NORTHERN IDAHO


CITY           SKY/WX    TMP DP  RH WIND       PRES   REMARKS
LEWISTON       CLOUDY    54  45  71 CALM      30.24R
LOWELL           N/A     56  41  57 S8        30.20S
COEUR D`ALENE  CLOUDY    55  43  62 N3        30.20S
MULLAN PASS    CLOUDY    40  31  70 CALM      30.21R
$$





000
ASUS45 KBOI 301810
RWRID

IDAHO REGIONAL WEATHER ROUNDUP
NATIONAL WEATHER SERVICE BOISE ID
1200 PM MDT SAT APR 30 2016

NOTE: "FAIR" INDICATES FEW OR NO CLOUDS BELOW 12000 FEET
WITH NO SIGNIFICANT WEATHER AND/OR OBSTRUCTIONS TO VISIBILITY

IDZ012-014-301900-
SOUTHWEST IDAHO


CITY           SKY/WX    TMP DP  RH WIND       PRES   REMARKS
BOISE          SUNNY     62  35  36 NW21G28   30.04F
CALDWELL       MOSUNNY   61  41  47 NW15      30.08F
MOUNTAIN HOME  MOSUNNY   60  35  38 N9        30.05S
$$

IDZ016-017-301900-
SOUTHCENTRAL IDAHO


CITY           SKY/WX    TMP DP  RH WIND       PRES   REMARKS
BURLEY         CLOUDY    46  40  79 W6        30.06S
JEROME         CLOUDY    47  40  76 SW7       30.07S
TWIN FALLS     CLOUDY    48  38  68 W8        30.07S
$$

IDZ019>023-301900-
SOUTHEAST IDAHO


CITY           SKY/WX    TMP DP  RH WIND       PRES   REMARKS
IDAHO FALLS    MOSUNNY   54  33  45 NE15G21   30.03S
POCATELLO      CLOUDY    50  39  66 NE9       30.04S
REXBURG        CLOUDY    53  31  42 E6        30.02S
$$

IDZ006-010-011-018-031-032-301900-
CENTRAL IDAHO MOUNTAINS


CITY           SKY/WX    TMP DP  RH WIND       PRES   REMARKS
MCCALL         SUNNY     49  31  49 N17       30.10S
HAILEY         PTSUNNY   50  32  50 SE5       30.06R
STANLEY          N/A     48  27  44 NW9       30.09S
SALMON         CLOUDY    48  32  53 N6        30.12R
CHALLIS        CLOUDY    54  30  40 N7        30.07F
$$

IDZ002-004-006-007-026-301900-
NORTHERN IDAHO


CITY           SKY/WX    TMP DP  RH WIND       PRES   REMARKS
LEWISTON       CLOUDY    53  45  74 E3        30.23R
LOWELL           N/A     57  40  52 CALM      30.20S
COEUR D`ALENE  PTSUNNY   54  43  66 NE6       30.20S
MULLAN PASS    PTSUNNY   39  33  79 CALM      30.19S
$$





000
ASUS45 KBOI 301810
RWRID

IDAHO REGIONAL WEATHER ROUNDUP
NATIONAL WEATHER SERVICE BOISE ID
1200 PM MDT SAT APR 30 2016

NOTE: "FAIR" INDICATES FEW OR NO CLOUDS BELOW 12000 FEET
WITH NO SIGNIFICANT WEATHER AND/OR OBSTRUCTIONS TO VISIBILITY

IDZ012-014-301900-
SOUTHWEST IDAHO


CITY           SKY/WX    TMP DP  RH WIND       PRES   REMARKS
BOISE          SUNNY     62  35  36 NW21G28   30.04F
CALDWELL       MOSUNNY   61  41  47 NW15      30.08F
MOUNTAIN HOME  MOSUNNY   60  35  38 N9        30.05S
$$

IDZ016-017-301900-
SOUTHCENTRAL IDAHO


CITY           SKY/WX    TMP DP  RH WIND       PRES   REMARKS
BURLEY         CLOUDY    46  40  79 W6        30.06S
JEROME         CLOUDY    47  40  76 SW7       30.07S
TWIN FALLS     CLOUDY    48  38  68 W8        30.07S
$$

IDZ019>023-301900-
SOUTHEAST IDAHO


CITY           SKY/WX    TMP DP  RH WIND       PRES   REMARKS
IDAHO FALLS    MOSUNNY   54  33  45 NE15G21   30.03S
POCATELLO      CLOUDY    50  39  66 NE9       30.04S
REXBURG        CLOUDY    53  31  42 E6        30.02S
$$

IDZ006-010-011-018-031-032-301900-
CENTRAL IDAHO MOUNTAINS


CITY           SKY/WX    TMP DP  RH WIND       PRES   REMARKS
MCCALL         SUNNY     49  31  49 N17       30.10S
HAILEY         PTSUNNY   50  32  50 SE5       30.06R
STANLEY          N/A     48  27  44 NW9       30.09S
SALMON         CLOUDY    48  32  53 N6        30.12R
CHALLIS        CLOUDY    54  30  40 N7        30.07F
$$

IDZ002-004-006-007-026-301900-
NORTHERN IDAHO


CITY           SKY/WX    TMP DP  RH WIND       PRES   REMARKS
LEWISTON       CLOUDY    53  45  74 E3        30.23R
LOWELL           N/A     57  40  52 CALM      30.20S
COEUR D`ALENE  PTSUNNY   54  43  66 NE6       30.20S
MULLAN PASS    PTSUNNY   39  33  79 CALM      30.19S
$$





000
ASUS45 KBOI 301710
RWRID

IDAHO REGIONAL WEATHER ROUNDUP
NATIONAL WEATHER SERVICE BOISE ID
1100 AM MDT SAT APR 30 2016

NOTE: "FAIR" INDICATES FEW OR NO CLOUDS BELOW 12000 FEET
WITH NO SIGNIFICANT WEATHER AND/OR OBSTRUCTIONS TO VISIBILITY

IDZ012-014-301800-
SOUTHWEST IDAHO


CITY           SKY/WX    TMP DP  RH WIND       PRES   REMARKS
BOISE          SUNNY     58  38  47 NW21      30.05F
CALDWELL       SUNNY     58  41  53 NW16G24   30.09F
MOUNTAIN HOME  MOSUNNY   56  36  46 NW17      30.05R
$$

IDZ016-017-301800-
SOUTHCENTRAL IDAHO


CITY           SKY/WX    TMP DP  RH WIND       PRES   REMARKS
BURLEY         CLOUDY    43  38  82 W12       30.06R
JEROME         CLOUDY    44  39  82 SW7       30.07R
TWIN FALLS     CLOUDY    46  37  71 SW10      30.07R
$$

IDZ019>023-301800-
SOUTHEAST IDAHO


CITY           SKY/WX    TMP DP  RH WIND       PRES   REMARKS
IDAHO FALLS    CLOUDY    51  33  50 NE12      30.03S
POCATELLO      CLOUDY    49  40  71 NE3       30.04R
REXBURG        CLOUDY    51  32  48 NE13G18   30.02S
$$

IDZ006-010-011-018-031-032-301800-
CENTRAL IDAHO MOUNTAINS


CITY           SKY/WX    TMP DP  RH WIND       PRES   REMARKS
MCCALL         MOSUNNY   47  32  56 N15G21    30.10S
HAILEY         PTSUNNY   48  30  49 NW5       30.05S
STANLEY          N/A     46  27  47 NW7       30.09S
SALMON         CLOUDY    48  34  57 N6        30.11S
CHALLIS        MOSUNNY   49  30  48 NW5       30.08F
$$

IDZ002-004-006-007-026-301800-
NORTHERN IDAHO


CITY           SKY/WX    TMP DP  RH WIND       PRES   REMARKS
LEWISTON       CLOUDY    52  47  83 E6        30.22R
LOWELL           N/A     54  41  61 CALM      30.20F
COEUR D`ALENE  CLOUDY    52  45  76 NE7       30.20S
MULLAN PASS    PTSUNNY   38  33  82 VRB3      30.19R
$$





000
ASUS45 KBOI 301610
RWRID

IDAHO REGIONAL WEATHER ROUNDUP
NATIONAL WEATHER SERVICE BOISE ID
1000 AM MDT SAT APR 30 2016

NOTE: "FAIR" INDICATES FEW OR NO CLOUDS BELOW 12000 FEET
WITH NO SIGNIFICANT WEATHER AND/OR OBSTRUCTIONS TO VISIBILITY

IDZ012-014-301700-
SOUTHWEST IDAHO


CITY           SKY/WX    TMP DP  RH WIND       PRES   REMARKS
BOISE          SUNNY     54  37  52 NW20G28   30.06R
CALDWELL       SUNNY     54  40  59 NW17      30.10S
MOUNTAIN HOME  SUNNY     53  37  53 NW20G25   30.04R
$$

IDZ016-017-301700-
SOUTHCENTRAL IDAHO


CITY           SKY/WX    TMP DP  RH WIND       PRES   REMARKS
BURLEY         CLOUDY    42  38  85 W9G16     30.05R
JEROME         CLOUDY    41  38  89 SW9       30.06R
TWIN FALLS     CLOUDY    43  37  79 SW9       30.06R
$$

IDZ019>023-301700-
SOUTHEAST IDAHO


CITY           SKY/WX    TMP DP  RH WIND       PRES   REMARKS
IDAHO FALLS    CLOUDY    46  35  65 NE5       30.03R
POCATELLO      PTSUNNY   46  39  76 CALM      30.03R
REXBURG        CLOUDY    46  36  68 NE6       30.02R
$$

IDZ006-010-011-018-031-032-301700-
CENTRAL IDAHO MOUNTAINS


CITY           SKY/WX    TMP DP  RH WIND       PRES   REMARKS
MCCALL         CLOUDY    43  35  73 VRB5      30.10R
HAILEY         PTSUNNY   45  36  70 W6        30.05R
STANLEY          N/A     42  26  53 NW10      30.09R
SALMON         CLOUDY    46  32  57 CALM      30.10S
CHALLIS        CLOUDY    45  29  53 W3        30.09R
$$

IDZ002-004-006-007-026-301700-
NORTHERN IDAHO


CITY           SKY/WX    TMP DP  RH WIND       PRES   REMARKS
LEWISTON       CLOUDY    51  47  86 CALM      30.21R
LOWELL           N/A     51  43  74 CALM      30.21S
COEUR D`ALENE  CLOUDY    48  43  81 NE7       30.20R
MULLAN PASS    CLOUDY    35  34  96 N3        30.17R
$$





000
ASUS45 KBOI 301510
RWRID

IDAHO REGIONAL WEATHER ROUNDUP
NATIONAL WEATHER SERVICE BOISE ID
900 AM MDT SAT APR 30 2016

NOTE: "FAIR" INDICATES FEW OR NO CLOUDS BELOW 12000 FEET
WITH NO SIGNIFICANT WEATHER AND/OR OBSTRUCTIONS TO VISIBILITY

IDZ012-014-301600-
SOUTHWEST IDAHO


CITY           SKY/WX    TMP DP  RH WIND       PRES   REMARKS
BOISE          SUNNY     50  36  58 NW13      30.05R
CALDWELL       SUNNY     50  39  66 NW15G23   30.10
MOUNTAIN HOME  SUNNY     49  37  64 NW22      30.03R
$$

IDZ016-017-301600-
SOUTHCENTRAL IDAHO


CITY           SKY/WX    TMP DP  RH WIND       PRES   REMARKS
BURLEY         CLOUDY    41  37  86 W10       30.03R
JEROME         CLOUDY    40  38  93 SW9       30.04R WCI  34
TWIN FALLS     CLOUDY    41  36  82 SW12      30.05R
$$

IDZ019>023-301600-
SOUTHEAST IDAHO


CITY           SKY/WX    TMP DP  RH WIND       PRES   REMARKS
IDAHO FALLS    CLOUDY    42  35  76 N6        30.02R
POCATELLO      CLOUDY    43  41  93 W5        30.02R
REXBURG        PTSUNNY   39  34  82 CALM      30.01R
$$

IDZ006-010-011-018-031-032-301600-
CENTRAL IDAHO MOUNTAINS


CITY           SKY/WX    TMP DP  RH WIND       PRES   REMARKS
MCCALL         PTSUNNY   43  35  73 W10       30.09R
HAILEY         PTSUNNY   39  34  81 NW6       30.04R WCI  35
STANLEY          N/A     38  27  64 N5        30.08R WCI  34
SALMON         CLOUDY    43  34  70 CALM      30.09S
CHALLIS        PTSUNNY   43  29  57 CALM      30.08R
$$

IDZ002-004-006-007-026-301600-
NORTHERN IDAHO


CITY           SKY/WX    TMP DP  RH WIND       PRES   REMARKS
LEWISTON       LGT RAIN  50  47  89 CALM      30.19R
LOWELL           N/A     48  44  86 CALM      30.21R
COEUR D`ALENE  CLOUDY    46  43  87 NE7       30.18R
MULLAN PASS    CLOUDY    34  33  96 CALM      30.16R
$$





000
ASUS45 KBOI 301510
RWRID

IDAHO REGIONAL WEATHER ROUNDUP
NATIONAL WEATHER SERVICE BOISE ID
900 AM MDT SAT APR 30 2016

NOTE: "FAIR" INDICATES FEW OR NO CLOUDS BELOW 12000 FEET
WITH NO SIGNIFICANT WEATHER AND/OR OBSTRUCTIONS TO VISIBILITY

IDZ012-014-301600-
SOUTHWEST IDAHO


CITY           SKY/WX    TMP DP  RH WIND       PRES   REMARKS
BOISE          SUNNY     50  36  58 NW13      30.05R
CALDWELL       SUNNY     50  39  66 NW15G23   30.10
MOUNTAIN HOME  SUNNY     49  37  64 NW22      30.03R
$$

IDZ016-017-301600-
SOUTHCENTRAL IDAHO


CITY           SKY/WX    TMP DP  RH WIND       PRES   REMARKS
BURLEY         CLOUDY    41  37  86 W10       30.03R
JEROME         CLOUDY    40  38  93 SW9       30.04R WCI  34
TWIN FALLS     CLOUDY    41  36  82 SW12      30.05R
$$

IDZ019>023-301600-
SOUTHEAST IDAHO


CITY           SKY/WX    TMP DP  RH WIND       PRES   REMARKS
IDAHO FALLS    CLOUDY    42  35  76 N6        30.02R
POCATELLO      CLOUDY    43  41  93 W5        30.02R
REXBURG        PTSUNNY   39  34  82 CALM      30.01R
$$

IDZ006-010-011-018-031-032-301600-
CENTRAL IDAHO MOUNTAINS


CITY           SKY/WX    TMP DP  RH WIND       PRES   REMARKS
MCCALL         PTSUNNY   43  35  73 W10       30.09R
HAILEY         PTSUNNY   39  34  81 NW6       30.04R WCI  35
STANLEY          N/A     38  27  64 N5        30.08R WCI  34
SALMON         CLOUDY    43  34  70 CALM      30.09S
CHALLIS        PTSUNNY   43  29  57 CALM      30.08R
$$

IDZ002-004-006-007-026-301600-
NORTHERN IDAHO


CITY           SKY/WX    TMP DP  RH WIND       PRES   REMARKS
LEWISTON       LGT RAIN  50  47  89 CALM      30.19R
LOWELL           N/A     48  44  86 CALM      30.21R
COEUR D`ALENE  CLOUDY    46  43  87 NE7       30.18R
MULLAN PASS    CLOUDY    34  33  96 CALM      30.16R
$$





000
ASUS45 KBOI 301410
RWRID

IDAHO REGIONAL WEATHER ROUNDUP
NATIONAL WEATHER SERVICE BOISE ID
800 AM MDT SAT APR 30 2016

NOTE: "FAIR" INDICATES FEW OR NO CLOUDS BELOW 12000 FEET
WITH NO SIGNIFICANT WEATHER AND/OR OBSTRUCTIONS TO VISIBILITY

IDZ012-014-301500-
SOUTHWEST IDAHO


CITY           SKY/WX    TMP DP  RH WIND       PRES   REMARKS
BOISE          SUNNY     45  37  73 W9        30.04R
CALDWELL       NOT AVBL
MOUNTAIN HOME  SUNNY     43  38  81 NW18G24   30.01R
$$

IDZ016-017-301500-
SOUTHCENTRAL IDAHO


CITY           SKY/WX    TMP DP  RH WIND       PRES   REMARKS
BURLEY         CLOUDY    40  36  86 W12G18    30.01R WCI  33
JEROME         CLOUDY    39  37  92 SW7       30.02R WCI  34
TWIN FALLS     CLOUDY    40  36  86 SW8       30.03R WCI  34
$$

IDZ019>023-301500-
SOUTHEAST IDAHO


CITY           SKY/WX    TMP DP  RH WIND       PRES   REMARKS
IDAHO FALLS    CLOUDY    36  33  89 CALM      30.00R
POCATELLO      CLOUDY    41  40  96 CALM      30.00R
REXBURG        CLOUDY    35  32  88 E5        29.99R WCI  31
$$

IDZ006-010-011-018-031-032-301500-
CENTRAL IDAHO MOUNTAINS


CITY           SKY/WX    TMP DP  RH WIND       PRES   REMARKS
MCCALL         PTSUNNY   38  34  85 E3        30.08R
HAILEY         PTSUNNY   37  34  87 W8        30.03R WCI  31
STANLEY          N/A     33  29  85 NE3       30.07R
SALMON         CLOUDY    39  34  81 CALM      30.09R
CHALLIS        CLOUDY    42  28  57 NE3       30.06R
$$

IDZ002-004-006-007-026-301500-
NORTHERN IDAHO


CITY           SKY/WX    TMP DP  RH WIND       PRES   REMARKS
LEWISTON       CLOUDY    50  47  89 CALM      30.17R
LOWELL           N/A     46  43  89 CALM      30.19R
COEUR D`ALENE  CLOUDY    46  43  87 NE7       30.16R
MULLAN PASS    CLOUDY    32  31  96 CALM      30.13R
$$





000
ASUS45 KBOI 301310
RWRID

IDAHO REGIONAL WEATHER ROUNDUP
NATIONAL WEATHER SERVICE BOISE ID
700 AM MDT SAT APR 30 2016

NOTE: "FAIR" INDICATES FEW OR NO CLOUDS BELOW 12000 FEET
WITH NO SIGNIFICANT WEATHER AND/OR OBSTRUCTIONS TO VISIBILITY

IDZ012-014-301400-
SOUTHWEST IDAHO


CITY           SKY/WX    TMP DP  RH WIND       PRES   REMARKS
BOISE          CLEAR     43  36  76 NW15      30.01R
CALDWELL       CLEAR     43  38  82 W10       30.06R
MOUNTAIN HOME  CLEAR     40  37  88 NW15      29.99R WCI  32
$$

IDZ016-017-301400-
SOUTHCENTRAL IDAHO


CITY           SKY/WX    TMP DP  RH WIND       PRES   REMARKS
BURLEY         CLOUDY    40  36  86 W12G20    29.98R WCI  33
JEROME         CLOUDY    38  37  97 S7        30.00R WCI  33
TWIN FALLS     CLOUDY    39  35  86 SW13      30.01R WCI  31
$$

IDZ019>023-301400-
SOUTHEAST IDAHO


CITY           SKY/WX    TMP DP  RH WIND       PRES   REMARKS
IDAHO FALLS    CLEAR     31  30  96 N3        29.97R
POCATELLO      MOCLDY    37  36  96 S5        29.97R WCI  33
REXBURG        MOCLDY    34  31  88 CALM      29.97R
$$

IDZ006-010-011-018-031-032-301400-
CENTRAL IDAHO MOUNTAINS


CITY           SKY/WX    TMP DP  RH WIND       PRES   REMARKS
MCCALL         CLOUDY    36  33  89 CALM      30.05R
HAILEY         MOCLDY    36  32  87 W8        30.01R WCI  29
STANLEY          N/A     31  27  85 CALM      30.05R
SALMON         CLOUDY    37  34  87 CALM      30.06R
CHALLIS        CLOUDY    38  28  67 W3        30.04R
$$

IDZ002-004-006-007-026-301400-
NORTHERN IDAHO


CITY           SKY/WX    TMP DP  RH WIND       PRES   REMARKS
LEWISTON       LGT RAIN  49  46  90 E6        30.15R
LOWELL           N/A     45  43  93 CALM      30.17R
COEUR D`ALENE  MOCLDY    45  43  93 CALM      30.13R
MULLAN PASS    MOCLDY    31  30  96 CALM      30.11R
$$





000
ASUS45 KBOI 301310
RWRID

IDAHO REGIONAL WEATHER ROUNDUP
NATIONAL WEATHER SERVICE BOISE ID
700 AM MDT SAT APR 30 2016

NOTE: "FAIR" INDICATES FEW OR NO CLOUDS BELOW 12000 FEET
WITH NO SIGNIFICANT WEATHER AND/OR OBSTRUCTIONS TO VISIBILITY

IDZ012-014-301400-
SOUTHWEST IDAHO


CITY           SKY/WX    TMP DP  RH WIND       PRES   REMARKS
BOISE          CLEAR     43  36  76 NW15      30.01R
CALDWELL       CLEAR     43  38  82 W10       30.06R
MOUNTAIN HOME  CLEAR     40  37  88 NW15      29.99R WCI  32
$$

IDZ016-017-301400-
SOUTHCENTRAL IDAHO


CITY           SKY/WX    TMP DP  RH WIND       PRES   REMARKS
BURLEY         CLOUDY    40  36  86 W12G20    29.98R WCI  33
JEROME         CLOUDY    38  37  97 S7        30.00R WCI  33
TWIN FALLS     CLOUDY    39  35  86 SW13      30.01R WCI  31
$$

IDZ019>023-301400-
SOUTHEAST IDAHO


CITY           SKY/WX    TMP DP  RH WIND       PRES   REMARKS
IDAHO FALLS    CLEAR     31  30  96 N3        29.97R
POCATELLO      MOCLDY    37  36  96 S5        29.97R WCI  33
REXBURG        MOCLDY    34  31  88 CALM      29.97R
$$

IDZ006-010-011-018-031-032-301400-
CENTRAL IDAHO MOUNTAINS


CITY           SKY/WX    TMP DP  RH WIND       PRES   REMARKS
MCCALL         CLOUDY    36  33  89 CALM      30.05R
HAILEY         MOCLDY    36  32  87 W8        30.01R WCI  29
STANLEY          N/A     31  27  85 CALM      30.05R
SALMON         CLOUDY    37  34  87 CALM      30.06R
CHALLIS        CLOUDY    38  28  67 W3        30.04R
$$

IDZ002-004-006-007-026-301400-
NORTHERN IDAHO


CITY           SKY/WX    TMP DP  RH WIND       PRES   REMARKS
LEWISTON       LGT RAIN  49  46  90 E6        30.15R
LOWELL           N/A     45  43  93 CALM      30.17R
COEUR D`ALENE  MOCLDY    45  43  93 CALM      30.13R
MULLAN PASS    MOCLDY    31  30  96 CALM      30.11R
$$





    US Dept of Commerce
    National Oceanic and Atmospheric Administration
    National Weather Service
    1325 East West Highway
    Silver Spring, MD 20910
    Page Author: NWS Internet Services Team
Disclaimer
Information Quality
Credits
Glossary
Privacy Policy
Freedom of Information Act (FOIA)
About Us
Career Opportunities